Regional Weather Roundup
Issued by NWS

Home | Current Version | Previous Version | Text Only | Print | Product List | Glossary On
Versions: 1 2 3 4 5 6 7 8 9 10 11 12 13 14 15 16 17 18 19 20 21 22 23 24 25 26 27 28 29 30 31 32 33 34 35 36 37 38 39 40 41 42 43 44 45 46 47 48 49 50
000
ASUS45 KCYS 021210
RWRWY

WYOMING REGIONAL WEATHER ROUNDUP
NATIONAL WEATHER SERVICE CHEYENNE WY
600 AM MDT TUE SEP 02 2014

NOTE:  "FAIR" INDICATES FEW OR NO CLOUDS BELOW 12,000 FEET
WITH NO SIGNIFICANT WEATHER AND/OR OBSTRUCTIONS TO VISIBILITY.

WYZ001-021300-
YELLOWSTONE NATIONAL PARK

CITY           SKY/WX    TMP DP  RH WIND       PRES   REMARKS
LK YELLOWSTONE   N/A     29  28  96 NW3       30.19F
6HR MIN TEMP:  29; 6HR MAX TEMP:  35;

W YELLOWSTONE  NOT AVBL

$$
WYZ002>013-054>058-071-098>099-021300-
NORTHERN WYOMING

CITY           SKY/WX    TMP DP  RH WIND       PRES   REMARKS
JACKSON        CLEAR     32  32 100 N5        30.17S WCI  27
CODY             N/A    N/A N/A N/A MISG        N/A
GREYBULL       CLEAR     47  32  56 CALM      29.97S
6HR MIN TEMP:  47; 6HR MAX TEMP:  56;

WORLAND        CLEAR     44  39  82 CALM      29.97F
6HR MIN TEMP:  43; 6HR MAX TEMP:  52;

SHERIDAN       CLEAR     45  38  76 SW6       29.92F
6HR MIN TEMP:  44; 6HR MAX TEMP:  52;

BUFFALO        CLEAR     49  34  56 W8        29.99F
6HR MIN TEMP:  43; 6HR MAX TEMP:  53;

GILLETTE       CLEAR     51  42  71 S16       29.97F
6HR MIN TEMP:  48; 6HR MAX TEMP:  52;

HULETT         FAIR      54  39  58 MISG      29.98
NEWCASTLE      FAIR      46  39  76 E3        30.03

$$
WYZ014>020-022>026-101>103-021300-
CENTRAL WYOMING

CITY           SKY/WX    TMP DP  RH WIND       PRES   REMARKS
BIG PINEY      CLEAR     33  29  85 CALM      30.20F
6HR MIN TEMP:  32; 6HR MAX TEMP:  43;

PINEDALE       MOSUNNY   32  30  93 W5        30.21F WCI  27
DUBOIS         FAIR      37  30  75 NW12      30.13F WCI  30
LANDER         CLEAR     45  32  60 SE5       30.06F
6HR MIN TEMP:  44; 6HR MAX TEMP:  57;

RIVERTON       CLEAR     48  30  49 SW10      30.06F
6HR MIN TEMP:  47; 6HR MAX TEMP:  58;

CASPER         CLEAR     36  34  92 W3        30.06S
6HR MIN TEMP:  35; 6HR MAX TEMP:  50;

DOUGLAS        FOG       38  37  97 W3        30.06S VSB 3/4
6HR MIN TEMP:  39; 6HR MAX TEMP:  50;


$$
WYZ021-027>030-104>119-021300-
SOUTHERN WYOMING

CITY           SKY/WX    TMP DP  RH WIND       PRES   REMARKS
EVANSTON       PTCLDY    45  26  47 SE6       30.19S
6HR MIN TEMP:  44; 6HR MAX TEMP:  53;

KEMMERER       SUNNY     37  34  87 NW8       30.20F WCI  31
FORT BRIDGER   FAIR      47  26  43 W3        30.22S
ROCK SPRINGS   PTCLDY    47  31  53 CALM      30.18S
6HR MIN TEMP:  45; 6HR MAX TEMP:  53;

DIXON          FAIR      42  34  72 E3        30.23S
RAWLINS        CLEAR     46  32  58 SW8       30.17S
6HR MIN TEMP:  45; 6HR MAX TEMP:  52;

SARATOGA       FAIR      41  32  70 SE9       30.21S
LARAMIE        CLEAR     38  32  79 E5        30.18S WCI  34
6HR MIN TEMP:  37; 6HR MAX TEMP:  44;

CHEYENNE       CLEAR     47  42  83 SW9       30.15F
6HR MIN TEMP:  43; 6HR MAX TEMP:  48;

TORRINGTON     CLEAR     42  41  96 SE7       30.04F
6HR MIN TEMP:  42; 6HR MAX TEMP:  52;

PINE BLUFFS    FAIR      39  37  93 S5        30.12F

$$



USA.gov is the U.S. government's official web portal to all federal, state and local government web resources and services.